This demonstration page uses our WeatherBlox Daily Observations layout. Learn more.

Left ArrowRight Arrow

Hourly Observations for August 4, 2020

Temp ( °F °C ) Dew Point ( °F °C ) Humidity (%) Winds ( mph kmh ) Pressure ( in mb ) Visibility ( mi km ) Precip ( " mm )
12:53 am 00:53 Clear 62 16.7 55 12.8 78 78 SE 10 17 30.15 1021 10 16 0.00 0.00
1:53 am 01:53 Clear 61 16.1 55 12.8 81 81 SE 9 15 30.12 1020 10 16 0.00 0.00
2:53 am 02:53 Clear 60 15.6 54 12.2 80 80 SSE 8 13 30.11 1020 10 16 0.00 0.00
3:53 am 03:53 Clear 60 15.6 52 11.1 75 75 SSE 8 13 30.11 1020 10 16 0.00 0.00
4:53 am 04:53 Mostly Clear 59 15 52 11.1 78 78 S 7 11 30.11 1020 10 16 0.00 0.00
5:53 am 05:53 Clear 57 13.9 52 11.1 83 83 SSW 6 9 30.12 1020 10 16 0.00 0.00
6:53 am 06:53 Partly Cloudy 57 13.9 52 11.1 83 83 S 5 7 30.14 1021 10 16 0.00 0.00
7:53 am 07:53 Partly Cloudy 60 15.6 53 11.7 78 78 S 7 11 30.13 1020 10 16 0.00 0.00
8:53 am 08:53 Mostly Sunny 64 17.8 53 11.7 68 68 S 7 11 30.14 1021 10 16 0.00 0.00
9:53 am 09:53 Partly Cloudy 64 17.8 55 12.8 73 73 S 6 9 30.16 1021 10 16 0.00 0.00
10:53 am 10:53 Mostly Cloudy 65 18.3 52 11.1 63 63 SSE 7 11 30.15 1021 10 16 0.00 0.00
11:53 am 11:53 Cloudy with Light Rain 62 16.7 58 14.4 86 86 S 7 11 30.16 1021 7 11 0.04 1.02
12:53 pm 12:53 Mostly Cloudy 63 17.2 61 16.1 93 93 SSW 8 13 30.13 1020 10 16 0.02 0.51
1:53 pm 13:53 Sunny 67 19.4 57 13.9 71 71 SSE 7 11 30.14 1021 10 16 0.00 0.00
2:53 pm 14:53 Sunny 69 20.6 56 13.3 63 63 SSE 12 19 30.11 1020 10 16 0.00 0.00
3:53 pm 15:53 Sunny 72 22.2 56 13.3 57 57 SSE 10 17 30.11 1020 10 16 0.00 0.00
4:53 pm 16:53 Sunny 72 22.2 56 13.3 57 57 SE 8 13 30.09 1019 10 16 0.00 0.00
5:53 pm 17:53 Sunny 72 22.2 57 13.9 59 59 SE 12 19 30.08 1019 10 16 0.00 0.00
6:53 pm 18:53 Cloudy 71 21.7 56 13.3 59 59 SE 12 19 30.06 1018 10 16 0.00 0.00
7:53 pm 19:53 Cloudy 70 21.1 56 13.3 61 61 SSE 9 15 30.05 1018 10 16 0.00 0.00
8:53 pm 20:53 Cloudy 68 20 58 14.4 70 70 S 6 9 30.06 1018 10 16 0.00 0.00
9:53 pm 21:53 Mostly Cloudy 67 19.4 57 13.9 71 71 SSE 9 15 30.06 1018 10 16 0.00 0.00
10:53 pm 22:53 Mostly Cloudy 66 18.9 56 13.3 70 70 SSE 8 13 30.07 1018 10 16 0.00 0.00
11:53 pm 23:53 Mostly Clear 65 18.3 54 12.2 68 68 SSE 12 19 30.02 1017 10 16 0.00 0.00

Powered by AerisWeather